Weather History for Findlay, OH

Change the Weather History Date:

Sunday, February 2, 2014

  Actual Average Record
Temperature  
Mean Temperature 27 °F -  
Max Temperature 33 °F 33 °F 56 °F (1983)
Min Temperature 21 °F 18 °F -12 °F (1951)
Degree Days  
Heating Degree Days 38    
Moisture  
Dew Point 22 °F    
Average Humidity 85    
Maximum Humidity 96    
Minimum Humidity 75    
Precipitation  
Precipitation 0.18 in - - ()
Sea Level Pressure  
Sea Level Pressure 30.11 in    
Wind  
Wind Speed 8 mph (NNW)    
Max Wind Speed 15 mph    
Max Gust Speed -    
Visibility 6 miles    
Events Snow    
Averages and records for this station are not official NWS values.
T = Trace of Precipitation, MM = Missing Value Source: NWS Daily Summary

Daily Weather History Graph

Daily Weather History Graph

Search for Another Location

Airport:

Trip Planner

Search our weather history database for the weather conditions in past years. The results will help you decide how hot, cold, wet, or windy it might be!

Date:

Astronomy

Feb. 02, 2014 Rise Set
Actual Time 7:44 AM EST 5:53 PM EST
Civil Twilight 7:15 AM EST 6:22 PM EST
Nautical Twilight 6:42 AM EST 6:54 PM EST
Astronomical Twilight 6:10 AM EST 7:27 PM EST
Moon 9:08 AM EST (2/2) 9:38 PM EST (2/2)
Length of Visible Light 11h 06m
Length of Day
10h 08m
Waxing Crescent, 11% of the Moon is Illuminated
Feb 2
Waxing Crescent
Feb 6
First Quarter
Feb 14
Full
Feb 22
Last Quarter
Mar 1
New

Hourly Weather History & Observations

Time (EST) Temp. Windchill Dew Point Humidity Pressure Visibility Wind Dir Wind Speed Gust Speed Precip Events Conditions
12:36 AM 33.1 °F 25.5 °F 30.9 °F 92% 29.95 in 1.8 mi NW 9.2 mph - 0.01 in Snow Light Snow
12:53 AM 32.0 °F 24.2 °F 30.9 °F 96% 29.96 in 1.5 mi NNW 9.2 mph - 0.02 in Snow Light Snow
1:33 AM 32.0 °F 24.8 °F 30.0 °F 92% 29.95 in 1.2 mi NNW 8.1 mph - 0.02 in Snow Light Snow
1:53 AM 30.9 °F 23.5 °F 30.0 °F 96% 29.97 in 1.5 mi NNW 8.1 mph - 0.03 in Snow Light Snow
2:50 AM 30.2 °F 21.9 °F 28.4 °F 93% 29.98 in 1.2 mi NNW 9.2 mph - 0.03 in Snow Light Snow
2:53 AM 30.0 °F 22.4 °F 28.9 °F 96% 29.99 in 1.0 mi North 8.1 mph - 0.03 in Snow Light Snow
3:37 AM 28.9 °F 19.8 °F 28.0 °F 96% 29.99 in 0.8 mi North 10.4 mph - 0.03 in Snow Light Snow
3:53 AM 28.9 °F 21.9 °F 28.0 °F 96% 30.01 in 0.8 mi NW 6.9 mph - 0.04 in Snow Light Snow
4:08 AM 28.0 °F 20.0 °F 26.1 °F 92% 29.99 in 1.0 mi NNW 8.1 mph - 0.01 in Snow Light Snow
4:53 AM 27.0 °F 18.0 °F 25.0 °F 92% 30.03 in 1.5 mi NNW 9.2 mph - 0.03 in Snow Light Snow
5:53 AM 26.1 °F 15.6 °F 24.1 °F 92% 30.05 in 1.5 mi NNW 11.5 mph - 0.01 in Snow Light Snow
6:53 AM 25.0 °F 16.3 °F 23.0 °F 92% 30.07 in 2.0 mi NNW 8.1 mph - 0.02 in Snow Light Snow
7:41 AM 25.0 °F 14.8 °F 21.9 °F 88% 30.05 in 4.0 mi NNW 10.4 mph - 0.00 in Snow Light Snow
7:49 AM 24.8 °F 15.3 °F 21.2 °F 86% 30.06 in 5.0 mi NNW 9.2 mph - 0.00 in   Overcast
7:53 AM 25.0 °F 16.3 °F 21.9 °F 88% 30.09 in 6.0 mi NNW 8.1 mph - 0.00 in   Overcast
8:39 AM 25.0 °F 17.1 °F 21.9 °F 88% 30.08 in 1.8 mi NNW 6.9 mph - 0.00 in Snow Light Snow
8:53 AM 25.0 °F 16.3 °F 21.9 °F 88% 30.10 in 2.0 mi NNW 8.1 mph - 0.00 in Snow Light Snow
9:03 AM 25.0 °F 17.1 °F 21.9 °F 88% 30.09 in 1.8 mi NNW 6.9 mph - 0.00 in Snow Light Snow
9:20 AM 25.0 °F 18.1 °F 21.9 °F 88% 30.09 in 2.5 mi NNW 5.8 mph - 0.00 in Snow Light Snow
9:30 AM 25.0 °F 16.3 °F 21.9 °F 88% 30.09 in 3.0 mi NNW 8.1 mph - 0.00 in Snow Light Snow
9:38 AM 25.0 °F 16.3 °F 21.9 °F 88% 30.10 in 3.0 mi NNW 8.1 mph - 0.00 in   Overcast
9:53 AM 25.0 °F 14.8 °F 21.9 °F 88% 30.14 in 5.0 mi NW 10.4 mph - 0.00 in   Overcast
10:15 AM 25.0 °F 15.5 °F 21.9 °F 88% 30.13 in 6.0 mi NNW 9.2 mph - N/A   Overcast
10:46 AM 25.0 °F 16.3 °F 21.0 °F 85% 30.14 in 8.0 mi NW 8.1 mph - N/A   Mostly Cloudy
10:53 AM 25.0 °F 14.8 °F 21.0 °F 85% 30.16 in 8.0 mi NW 10.4 mph - N/A   Overcast
11:45 AM 25.0 °F 14.2 °F 21.0 °F 85% 30.14 in 7.0 mi NNW 11.5 mph - N/A   Overcast
11:53 AM 26.1 °F 15.0 °F 21.0 °F 81% 30.16 in 7.0 mi NW 12.7 mph - N/A   Overcast
12:53 PM 26.1 °F 14.0 °F 19.9 °F 78% 30.17 in 10.0 mi NW 15.0 mph - N/A   Overcast
1:53 PM 25.0 °F 15.5 °F 19.9 °F 81% 30.14 in 10.0 mi NNW 9.2 mph - N/A   Overcast
2:53 PM 25.0 °F 14.8 °F 19.9 °F 81% 30.15 in 10.0 mi NNW 10.4 mph - N/A   Overcast
3:34 PM 25.0 °F 15.5 °F 19.0 °F 78% 30.16 in 10.0 mi NNW 9.2 mph - N/A   Overcast
3:53 PM 26.1 °F 16.2 °F 19.0 °F 75% 30.19 in 10.0 mi NNW 10.4 mph - N/A   Overcast
4:53 PM 25.0 °F 17.1 °F 19.0 °F 78% 30.21 in 10.0 mi NNW 6.9 mph - N/A   Overcast
5:53 PM 25.0 °F 18.1 °F 18.0 °F 75% 30.22 in 9.0 mi NNW 5.8 mph - N/A   Overcast
6:53 PM 25.0 °F 20.7 °F 19.0 °F 78% 30.23 in 10.0 mi North 3.5 mph - N/A   Overcast
7:42 PM 25.0 °F - 19.0 °F 78% 30.22 in 9.0 mi Calm Calm - N/A   Partly Cloudy
7:53 PM 24.1 °F 19.7 °F 18.0 °F 77% 30.24 in 9.0 mi North 3.5 mph - N/A   Scattered Clouds
8:09 PM 24.1 °F 19.7 °F 18.0 °F 77% 30.20 in 9.0 mi North 3.5 mph - N/A   Mostly Cloudy
8:53 PM 24.1 °F - 19.0 °F 81% 30.24 in 9.0 mi Calm Calm - N/A   Overcast
9:53 PM 24.1 °F 15.2 °F 18.0 °F 77% 30.24 in 9.0 mi ENE 8.1 mph - N/A   Overcast
10:53 PM 21.9 °F 15.7 °F 16.0 °F 78% 30.24 in 10.0 mi ENE 4.6 mph - N/A   Mostly Cloudy
11:06 PM 21.9 °F 14.5 °F 16.0 °F 78% 30.21 in 10.0 mi NE 5.8 mph - N/A   Scattered Clouds
11:53 PM 21.9 °F 14.5 °F 15.1 °F 75% 30.24 in 10.0 mi NE 5.8 mph - N/A   Clear